Track PERSEUS M1 now! 10-day predictions PERSEUS M1 is classified as:
1 40039U 14033AF 21058.50754730 .00000150 00000-0 23306-4 0 9998 2 40039 97.8858 337.4134 0013885 188.7107 171.3869 14.86252138362450